Tracking 17149 objects as of 22-May-2015
HD Live streaming from Space Station

COSMOS 1813 DEB


COSMOS 1813 DEB is no longer on orbit
COSMOS 1813 DEB is classified as:


NORAD ID: 17510
Int'l Code: 1987-004AY
Perigee: N/A
Apogee: N/A
Inclination: N/A
Period: N/A
Semi major axis: N/A
RCS: N/A
Launch date: January 15, 1987
Source: Commonwealth of Independent States (former USSR) (CIS)
Decay date: 1987-06-30

Note: This is SATELLITE DEBRIS
Your satellite tracking list
Your tracking list is empty





NASA's NSSDC Master Catalog

Two Line Element Set (TLE):
1 17510U 87004 AY 87181.26094296  .24615860 +90130-5 +24877-3 0  9997
2 17510 072.7747 241.3678 0017937 214.1706 146.9284 16.49746336023568

Source of the keplerian elements: AFSPC

N2YO: 400